TimeCST,TemperatureF,Dew PointF,Humidity,Sea Level PressureIn,VisibilityMPH,Wind Direction,Wind SpeedMPH,Gust SpeedMPH,PrecipitationIn,Events,Conditions,WindDirDegrees,DateUTC
12:53 AM,23.0,16.0,74,30.40,10.0,East,9.2,-,N/A,,Clear,100,2013-03-06 06:53:00
1:53 AM,21.9,15.1,75,30.40,10.0,East,4.6,-,N/A,,Clear,100,2013-03-06 07:53:00
2:53 AM,21.0,14.0,74,30.39,10.0,ESE,5.8,-,N/A,,Clear,120,2013-03-06 08:53:00
3:53 AM,21.0,14.0,74,30.36,10.0,East,5.8,-,N/A,,Clear,100,2013-03-06 09:53:00
4:53 AM,19.9,14.0,78,30.36,10.0,East,6.9,-,N/A,,Clear,100,2013-03-06 10:53:00
5:53 AM,19.9,15.1,81,30.36,10.0,ESE,8.1,-,N/A,,Clear,110,2013-03-06 11:53:00
6:53 AM,19.9,14.0,78,30.37,10.0,East,8.1,-,N/A,,Clear,100,2013-03-06 12:53:00
7:53 AM,21.0,16.0,81,30.37,10.0,SE,9.2,-,N/A,,Clear,130,2013-03-06 13:53:00
8:53 AM,24.1,17.1,75,30.38,10.0,SE,11.5,-,N/A,,Clear,140,2013-03-06 14:53:00
9:53 AM,28.0,19.0,69,30.35,10.0,ESE,17.3,-,N/A,,Clear,120,2013-03-06 15:53:00
10:53 AM,32.0,19.9,61,30.32,10.0,SE,18.4,-,N/A,,Clear,130,2013-03-06 16:53:00
11:53 AM,36.0,21.0,55,30.28,10.0,SE,19.6,25.3,N/A,,Clear,130,2013-03-06 17:53:00
12:53 PM,39.0,21.9,50,30.24,10.0,SSE,21.9,27.6,N/A,,Clear,150,2013-03-06 18:53:00
1:53 PM,41.0,23.0,49,30.19,10.0,SSE,19.6,26.5,N/A,,Clear,160,2013-03-06 19:53:00
2:53 PM,44.1,24.1,45,30.15,10.0,SSE,17.3,28.8,N/A,,Clear,150,2013-03-06 20:53:00
3:53 PM,46.0,26.1,46,30.12,10.0,SE,16.1,25.3,N/A,,Clear,140,2013-03-06 21:53:00
4:53 PM,45.0,26.1,48,30.09,10.0,SE,20.7,27.6,N/A,,Clear,130,2013-03-06 22:53:00
5:53 PM,42.1,27.0,55,30.08,10.0,ESE,16.1,-,N/A,,Clear,120,2013-03-06 23:53:00
6:53 PM,37.0,26.1,65,30.08,10.0,East,13.8,-,N/A,,Clear,100,2013-03-07 00:53:00
7:53 PM,35.1,26.1,70,30.08,10.0,ESE,13.8,-,N/A,,Clear,110,2013-03-07 01:53:00
8:53 PM,33.1,26.1,75,30.09,10.0,ESE,12.7,-,N/A,,Clear,110,2013-03-07 02:53:00
9:53 PM,32.0,25.0,75,30.09,10.0,ESE,9.2,-,N/A,,Clear,120,2013-03-07 03:53:00
10:53 PM,30.9,25.0,79,30.06,10.0,ESE,12.7,-,N/A,,Clear,120,2013-03-07 04:53:00
11:53 PM,30.0,25.0,82,30.05,10.0,ESE,8.1,-,N/A,,Clear,110,2013-03-07 05:53:00